Time,TemperatureF,DewpointF,PressureIn,WindDirection,WindDirectionDegrees,WindSpeedMPH,WindSpeedGustMPH,Humidity,HourlyPrecipIn,Conditions,Clouds,dailyrainin,SoftwareType,DateUTC
2013-02-08 00:12:00,10.0,-99.9,-100.00,North,-999,-999.0,-999.0,-999,0.00,,,0.04,,2013-02-08 07:12:00,
2013-02-08 00:22:00,10.0,-99.9,-100.00,North,-999,-999.0,-999.0,-999,0.00,,,0.04,,2013-02-08 07:22:00,
2013-02-08 00:32:00,10.0,-99.9,-100.00,North,-999,-999.0,-999.0,-999,0.00,,,0.04,,2013-02-08 07:32:00,
2013-02-08 00:42:00,10.0,-99.9,-100.00,North,-999,-999.0,-999.0,-999,0.00,,,0.04,,2013-02-08 07:42:00,
2013-02-08 01:12:00,7.0,-99.9,-100.00,North,-999,-999.0,-999.0,-999,0.00,,,0.04,,2013-02-08 08:12:00,
2013-02-08 01:22:00,7.0,-99.9,-100.00,North,-999,-999.0,-999.0,-999,0.00,,,0.04,,2013-02-08 08:22:00,
2013-02-08 01:32:00,7.0,-99.9,-100.00,North,-999,-999.0,-999.0,-999,0.00,,,0.04,,2013-02-08 08:32:00,
2013-02-08 01:42:00,7.0,-99.9,-100.00,North,-999,-999.0,-999.0,-999,0.00,,,0.04,,2013-02-08 08:42:00,
2013-02-08 02:11:00,5.0,-99.9,-100.00,North,-999,-999.0,-999.0,-999,0.00,,,0.04,,2013-02-08 09:11:00,
2013-02-08 02:22:00,5.0,-99.9,-100.00,North,-999,-999.0,-999.0,-999,0.00,,,0.04,,2013-02-08 09:22:00,
2013-02-08 02:32:00,5.0,-99.9,-100.00,North,-999,-999.0,-999.0,-999,0.00,,,0.04,,2013-02-08 09:32:00,
2013-02-08 02:42:00,5.0,-99.9,-100.00,North,-999,-999.0,-999.0,-999,0.00,,,0.04,,2013-02-08 09:42:00,
2013-02-08 03:12:00,3.0,-99.9,-100.00,North,-999,-999.0,-999.0,-999,0.01,,,0.05,,2013-02-08 10:12:00,
2013-02-08 03:22:00,3.0,-99.9,-100.00,North,-999,-999.0,-999.0,-999,0.01,,,0.05,,2013-02-08 10:22:00,
2013-02-08 03:42:00,3.0,-99.9,-100.00,North,-999,-999.0,-999.0,-999,0.01,,,0.05,,2013-02-08 10:42:00,
2013-02-08 04:22:00,2.0,-99.9,-100.00,North,-999,-999.0,-999.0,-999,-99.99,,,0.03,,2013-02-08 11:22:00,
2013-02-08 04:32:00,2.0,-99.9,-100.00,North,-999,-999.0,-999.0,-999,-99.99,,,0.03,,2013-02-08 11:32:00,
2013-02-08 04:42:00,2.0,-99.9,-100.00,North,-999,-999.0,-999.0,-999,-99.99,,,0.03,,2013-02-08 11:42:00,
2013-02-08 05:11:00,3.0,-99.9,-100.00,North,-999,-999.0,-999.0,-999,0.00,,,0.03,,2013-02-08 12:11:00,
2013-02-08 05:22:00,3.0,-99.9,-100.00,North,-999,-999.0,-999.0,-999,0.00,,,0.03,,2013-02-08 12:22:00,
2013-02-08 05:33:00,3.0,-99.9,-100.00,North,-999,-999.0,-999.0,-999,0.00,,,0.03,,2013-02-08 12:33:00,
2013-02-08 05:42:00,3.0,-99.9,-100.00,North,-999,-999.0,-999.0,-999,0.00,,,0.03,,2013-02-08 12:42:00,
2013-02-08 06:12:00,5.0,-99.9,-100.00,North,-999,-999.0,-999.0,-999,0.00,,,0.03,,2013-02-08 13:12:00,
2013-02-08 06:22:00,5.0,-99.9,-100.00,North,-999,-999.0,-999.0,-999,0.00,,,0.03,,2013-02-08 13:22:00,
2013-02-08 06:33:00,5.0,-99.9,-100.00,North,-999,-999.0,-999.0,-999,0.00,,,0.03,,2013-02-08 13:33:00,
2013-02-08 06:43:00,5.0,-99.9,-100.00,North,-999,-999.0,-999.0,-999,0.00,,,0.03,,2013-02-08 13:43:00,
2013-02-08 07:12:00,7.0,-99.9,-100.00,North,-999,-999.0,-999.0,-999,0.00,,,0.04,,2013-02-08 14:12:00,
2013-02-08 07:22:00,7.0,-99.9,-100.00,North,-999,-999.0,-999.0,-999,0.00,,,0.04,,2013-02-08 14:22:00,
2013-02-08 07:33:00,7.0,-99.9,-100.00,North,-999,-999.0,-999.0,-999,0.00,,,0.04,,2013-02-08 14:33:00,
2013-02-08 07:42:00,7.0,-99.9,-100.00,North,-999,-999.0,-999.0,-999,0.00,,,0.04,,2013-02-08 14:42:00,
2013-02-08 08:12:00,9.0,-99.9,-100.00,North,-999,-999.0,-999.0,-999,0.00,,,0.03,,2013-02-08 15:12:00,
2013-02-08 08:22:00,9.0,-99.9,-100.00,North,-999,-999.0,-999.0,-999,0.00,,,0.03,,2013-02-08 15:22:00,
2013-02-08 08:32:00,9.0,-99.9,-100.00,North,-999,-999.0,-999.0,-999,0.00,,,0.03,,2013-02-08 15:32:00,
2013-02-08 08:42:00,9.0,-99.9,-100.00,North,-999,-999.0,-999.0,-999,0.00,,,0.03,,2013-02-08 15:42:00,
2013-02-08 09:12:00,11.0,-99.9,-100.00,North,-999,-999.0,-999.0,-999,0.00,,,0.02,,2013-02-08 16:12:00,
2013-02-08 09:22:00,11.0,-99.9,-100.00,North,-999,-999.0,-999.0,-999,0.00,,,0.02,,2013-02-08 16:22:00,
2013-02-08 09:33:00,11.0,-99.9,-100.00,North,-999,-999.0,-999.0,-999,0.00,,,0.02,,2013-02-08 16:33:00,
2013-02-08 09:42:00,11.0,-99.9,-100.00,North,-999,-999.0,-999.0,-999,0.00,,,0.02,,2013-02-08 16:42:00,
2013-02-08 10:13:00,15.0,-99.9,-100.00,North,-999,-999.0,-999.0,-999,0.00,,,-99.99,,2013-02-08 17:13:00,
2013-02-08 10:23:00,15.0,-99.9,-100.00,North,-999,-999.0,-999.0,-999,0.00,,,-99.99,,2013-02-08 17:23:00,
2013-02-08 10:33:00,15.0,-99.9,-100.00,North,-999,-999.0,-999.0,-999,0.00,,,-99.99,,2013-02-08 17:33:00,
2013-02-08 10:43:00,15.0,-99.9,-100.00,North,-999,-999.0,-999.0,-999,0.00,,,-99.99,,2013-02-08 17:43:00,
2013-02-08 11:12:00,22.0,-99.9,-100.00,North,-999,-999.0,-999.0,-999,0.00,,,0.02,,2013-02-08 18:12:00,
2013-02-08 11:26:00,22.0,-99.9,-100.00,North,-999,-999.0,-999.0,-999,0.00,,,0.02,,2013-02-08 18:26:00,
2013-02-08 11:36:00,22.0,-99.9,-100.00,North,-999,-999.0,-999.0,-999,0.00,,,0.02,,2013-02-08 18:36:00,
2013-02-08 11:44:00,22.0,-99.9,-100.00,North,-999,-999.0,-999.0,-999,0.00,,,0.02,,2013-02-08 18:44:00,
2013-02-08 12:12:00,28.0,-99.9,-100.00,North,-999,-999.0,-999.0,-999,0.00,,,0.02,,2013-02-08 19:12:00,
2013-02-08 12:22:00,28.0,-99.9,-100.00,North,-999,-999.0,-999.0,-999,0.00,,,0.02,,2013-02-08 19:22:00,
2013-02-08 12:33:00,28.0,-99.9,-100.00,North,-999,-999.0,-999.0,-999,0.00,,,0.02,,2013-02-08 19:33:00,
2013-02-08 12:42:00,28.0,-99.9,-100.00,North,-999,-999.0,-999.0,-999,0.00,,,0.02,,2013-02-08 19:42:00,
2013-02-08 13:12:00,34.0,-99.9,-100.00,North,-999,-999.0,-999.0,-999,0.00,,,0.02,,2013-02-08 20:12:00,
2013-02-08 13:22:00,34.0,-99.9,-100.00,North,-999,-999.0,-999.0,-999,0.00,,,0.02,,2013-02-08 20:22:00,
2013-02-08 13:32:00,34.0,-99.9,-100.00,North,-999,-999.0,-999.0,-999,0.00,,,0.02,,2013-02-08 20:32:00,
2013-02-08 13:42:00,34.0,-99.9,-100.00,North,-999,-999.0,-999.0,-999,0.00,,,0.02,,2013-02-08 20:42:00,
2013-02-08 14:22:00,37.0,-99.9,-100.00,North,-999,-999.0,-999.0,-999,-99.99,,,0.00,,2013-02-08 21:22:00,
2013-02-08 14:33:00,37.0,-99.9,-100.00,North,-999,-999.0,-999.0,-999,-99.99,,,0.00,,2013-02-08 21:33:00,
2013-02-08 14:42:00,37.0,-99.9,-100.00,North,-999,-999.0,-999.0,-999,-99.99,,,0.00,,2013-02-08 21:42:00,
2013-02-08 15:12:00,39.0,-99.9,-100.00,North,-999,-999.0,-999.0,-999,0.00,,,0.00,,2013-02-08 22:12:00,
2013-02-08 15:22:00,39.0,-99.9,-100.00,North,-999,-999.0,-999.0,-999,0.00,,,0.00,,2013-02-08 22:22:00,
2013-02-08 15:32:00,39.0,-99.9,-100.00,North,-999,-999.0,-999.0,-999,0.00,,,0.00,,2013-02-08 22:32:00,
2013-02-08 15:42:00,39.0,-99.9,-100.00,North,-999,-999.0,-999.0,-999,0.00,,,0.00,,2013-02-08 22:42:00,
2013-02-08 16:12:00,38.0,-99.9,-100.00,North,-999,-999.0,-999.0,-999,0.00,,,0.00,,2013-02-08 23:12:00,
2013-02-08 16:22:00,38.0,-99.9,-100.00,North,-999,-999.0,-999.0,-999,0.00,,,0.00,,2013-02-08 23:22:00,
2013-02-08 16:32:00,38.0,-99.9,-100.00,North,-999,-999.0,-999.0,-999,0.00,,,0.00,,2013-02-08 23:32:00,
2013-02-08 16:42:00,38.0,-99.9,-100.00,North,-999,-999.0,-999.0,-999,0.00,,,0.00,,2013-02-08 23:42:00,
2013-02-08 17:12:00,36.0,-99.9,-100.00,North,-999,-999.0,-999.0,-999,0.00,,,0.00,,2013-02-09 00:12:00,
2013-02-08 17:22:00,36.0,-99.9,-100.00,North,-999,-999.0,-999.0,-999,0.00,,,0.00,,2013-02-09 00:22:00,
2013-02-08 17:32:00,36.0,-99.9,-100.00,North,-999,-999.0,-999.0,-999,0.00,,,0.00,,2013-02-09 00:32:00,
2013-02-08 17:42:00,36.0,-99.9,-100.00,North,-999,-999.0,-999.0,-999,0.00,,,0.00,,2013-02-09 00:42:00,
2013-02-08 18:22:00,30.0,-99.9,-100.00,North,-999,-999.0,-999.0,-999,0.00,,,0.00,,2013-02-09 01:22:00,
2013-02-08 18:32:00,30.0,-99.9,-100.00,North,-999,-999.0,-999.0,-999,0.00,,,0.00,,2013-02-09 01:32:00,
2013-02-08 18:42:00,30.0,-99.9,-100.00,North,-999,-999.0,-999.0,-999,0.00,,,0.00,,2013-02-09 01:42:00,
2013-02-08 19:12:00,29.0,-99.9,-100.00,North,-999,-999.0,-999.0,-999,0.00,,,0.00,,2013-02-09 02:12:00,
2013-02-08 19:22:00,29.0,-99.9,-100.00,North,-999,-999.0,-999.0,-999,0.00,,,0.00,,2013-02-09 02:22:00,
2013-02-08 19:32:00,29.0,-99.9,-100.00,North,-999,-999.0,-999.0,-999,0.00,,,0.00,,2013-02-09 02:32:00,
2013-02-08 19:42:00,29.0,-99.9,-100.00,North,-999,-999.0,-999.0,-999,0.00,,,0.00,,2013-02-09 02:42:00,
2013-02-08 20:11:00,28.0,-99.9,-100.00,North,-999,-999.0,-999.0,-999,0.00,,,-99.99,,2013-02-09 03:11:00,
2013-02-08 20:22:00,28.0,-99.9,-100.00,North,-999,-999.0,-999.0,-999,0.00,,,-99.99,,2013-02-09 03:22:00,
2013-02-08 20:32:00,28.0,-99.9,-100.00,North,-999,-999.0,-999.0,-999,0.00,,,-99.99,,2013-02-09 03:32:00,
2013-02-08 20:42:00,28.0,-99.9,-100.00,North,-999,-999.0,-999.0,-999,0.00,,,-99.99,,2013-02-09 03:42:00,
2013-02-08 21:12:00,26.0,-99.9,-100.00,North,-999,-999.0,-999.0,-999,0.00,,,0.00,,2013-02-09 04:12:00,
2013-02-08 21:24:00,26.0,-99.9,-100.00,North,-999,-999.0,-999.0,-999,0.00,,,0.00,,2013-02-09 04:24:00,
2013-02-08 21:32:00,26.0,-99.9,-100.00,North,-999,-999.0,-999.0,-999,0.00,,,0.00,,2013-02-09 04:32:00,
2013-02-08 21:43:00,26.0,-99.9,-100.00,North,-999,-999.0,-999.0,-999,0.00,,,0.00,,2013-02-09 04:43:00,
2013-02-08 22:12:00,23.0,-99.9,-100.00,North,-999,-999.0,-999.0,-999,0.00,,,-99.99,,2013-02-09 05:12:00,
2013-02-08 22:22:00,23.0,-99.9,-100.00,North,-999,-999.0,-999.0,-999,0.00,,,-99.99,,2013-02-09 05:22:00,
2013-02-08 22:32:00,23.0,-99.9,-100.00,North,-999,-999.0,-999.0,-999,0.00,,,-99.99,,2013-02-09 05:32:00,
2013-02-08 22:42:00,23.0,-99.9,-100.00,North,-999,-999.0,-999.0,-999,0.00,,,-99.99,,2013-02-09 05:42:00,
2013-02-08 23:11:00,23.0,-99.9,-100.00,North,-999,-999.0,-999.0,-999,0.00,,,-99.99,,2013-02-09 06:11:00,
2013-02-08 23:22:00,23.0,-99.9,-100.00,North,-999,-999.0,-999.0,-999,0.00,,,-99.99,,2013-02-09 06:22:00,
2013-02-08 23:32:00,23.0,-99.9,-100.00,North,-999,-999.0,-999.0,-999,0.00,,,-99.99,,2013-02-09 06:32:00,
2013-02-08 23:42:00,23.0,-99.9,-100.00,North,-999,-999.0,-999.0,-999,0.00,,,-99.99,,2013-02-09 06:42:00,